Orlando International, FL

5:11 AM EST on December 18, 2017 (GMT -0500)
Orlando International

Weather History for KMCO - September, 2013

Change the Weather History Date:

Wednesday, September 4, 2013

  Actual Average Record
Temperature  
Mean Temperature 83 °F 82 °F  
Max Temperature 91 °F 91 °F 97 °F (1944)
Min Temperature 74 °F 74 °F 65 °F (1909)
Degree Days  
Heating Degree Days 0 0  
Month to date heating degree days 0 0  
Since 1 July heating degree days 0 0  
Cooling Degree Days 18 17  
Month to date cooling degree days 69 68  
Year to date cooling degree days 2560 2461  
Growing Degree Days 32 (Base 50)    
Moisture  
Dew Point 73 °F    
Average Humidity 75    
Maximum Humidity 94    
Minimum Humidity 56    
Precipitation  
Precipitation 0.02 in 0.21 in 2.32 in (2016)
Month to date precipitation 2.41 0.86  
Year to date precipitation 38.00 37.47  
Sea Level Pressure  
Sea Level Pressure 30.05 in    
Wind  
Wind Speed 3 mph (South)    
Max Wind Speed 24 mph    
Max Gust Speed 29 mph    
Visibility 10 miles    
Events Rain , Thunderstorm    
T = Trace of Precipitation, MM = Missing Value Source: NWS Daily Summary

Daily Weather History Graph

Daily Weather History Graph

Search for Another Location

Airport or City:

Trip Planner

Search our weather history database for the weather conditions in past years. The results will help you decide how hot, cold, wet, or windy it might be!

Date:

Astronomy

Sep. 04, 2013 Rise Set
Actual Time 7:05 AM EDT 7:42 PM EDT
Civil Twilight 6:41 AM EDT 8:06 PM EDT
Nautical Twilight 6:13 AM EDT 8:34 PM EDT
Astronomical Twilight 5:44 AM EDT 9:03 PM EDT
Moon 6:15 AM EDT (9/4) 7:04 PM EDT (9/4)
Length of Visible Light 13h 25m
Length of Day
12h 37m
Waning Crescent, 1% of the Moon is Illuminated
Sep 4
Waning Crescent
Sep 5
New
Sep 12
First Quarter
Sep 19
Full
Sep 26
Last Quarter

Hourly Weather History & Observations

Time (EDT) Temp. Heat Index Dew Point Humidity Pressure Visibility Wind Dir Wind Speed Gust Speed Precip Events Conditions
12:53 AM 77.0 °F - 73.9 °F 90% 30.02 in 10.0 mi Calm Calm - N/A   Scattered Clouds
1:53 AM 75.9 °F - 73.0 °F 91% 30.01 in 10.0 mi SE 3.5 mph - N/A   Scattered Clouds
2:02 AM 77.0 °F - 73.4 °F 89% 30.01 in 10.0 mi Calm Calm - N/A   Mostly Cloudy
2:19 AM 77.0 °F - 73.4 °F 89% 30.01 in 10.0 mi Calm Calm - N/A   Mostly Cloudy
2:53 AM 77.0 °F - 73.9 °F 90% 30.00 in 10.0 mi Calm Calm - N/A   Scattered Clouds
3:53 AM 75.9 °F - 73.9 °F 94% 30.00 in 10.0 mi SSW 3.5 mph - N/A   Scattered Clouds
4:53 AM 75.9 °F - 73.9 °F 94% 30.00 in 10.0 mi North 4.6 mph - N/A   Scattered Clouds
5:53 AM 77.0 °F - 75.0 °F 94% 30.00 in 10.0 mi Calm Calm - N/A   Scattered Clouds
6:53 AM 75.0 °F - 73.0 °F 94% 30.02 in 10.0 mi Calm Calm - N/A   Mostly Cloudy
7:53 AM 77.0 °F - 75.0 °F 94% 30.04 in 10.0 mi SE 3.5 mph - N/A   Mostly Cloudy
8:53 AM 80.1 °F 85.4 °F 75.9 °F 87% 30.06 in 10.0 mi Calm Calm - N/A   Mostly Cloudy
9:53 AM 82.9 °F 90.2 °F 75.0 °F 77% 30.07 in 10.0 mi East 4.6 mph - N/A   Mostly Cloudy
10:53 AM 84.0 °F 92.6 °F 75.9 °F 76% 30.08 in 10.0 mi Calm Calm - N/A   Mostly Cloudy
11:53 AM 84.9 °F 93.3 °F 75.0 °F 72% 30.08 in 10.0 mi SE 3.5 mph - N/A   Mostly Cloudy
12:53 PM 88.0 °F 97.5 °F 75.0 °F 65% 30.07 in 10.0 mi Variable 4.6 mph - N/A   Mostly Cloudy
1:53 PM 89.1 °F 98.0 °F 73.9 °F 61% 30.06 in 10.0 mi South 5.8 mph - N/A   Mostly Cloudy
2:53 PM 90.0 °F 99.0 °F 73.9 °F 59% 30.04 in 10.0 mi SSE 4.6 mph - N/A   Mostly Cloudy
3:53 PM 91.0 °F 99.3 °F 73.0 °F 55% 30.03 in 10.0 mi Variable 3.5 mph - N/A   Mostly Cloudy
4:53 PM 90.0 °F 99.0 °F 73.9 °F 59% 30.03 in 10.0 mi East 5.8 mph - N/A   Mostly Cloudy
5:15 PM 91.4 °F 100.1 °F 73.4 °F 55% 30.04 in 10.0 mi ESE 4.6 mph - N/A Thunderstorm Thunderstorm
5:47 PM 78.8 °F - 69.8 °F 74% 30.06 in 10.0 mi South 13.8 mph 26.5 mph 0.00 in Rain , Thunderstorm Light Thunderstorms and Rain
5:53 PM 78.1 °F - 70.0 °F 76% 30.06 in 10.0 mi Variable 3.5 mph 18.4 mph 0.00 in Rain , Thunderstorm Light Thunderstorms and Rain
6:53 PM 78.1 °F - 73.9 °F 87% 30.05 in 10.0 mi SW 9.2 mph - 0.00 in Rain , Thunderstorm Light Thunderstorms and Rain
7:03 PM 78.8 °F - 73.4 °F 83% 30.05 in 10.0 mi SW 4.6 mph - 0.00 in Rain Light Rain
7:53 PM 77.0 °F - 71.1 °F 82% 30.07 in 10.0 mi WNW 3.5 mph - 0.01 in Rain Light Rain
8:53 PM 77.0 °F - 72.0 °F 84% 30.10 in 10.0 mi WNW 3.5 mph - 0.01 in   Overcast
9:53 PM 75.9 °F - 70.0 °F 82% 30.11 in 10.0 mi West 3.5 mph - N/A   Overcast
10:53 PM 75.9 °F - 72.0 °F 87% 30.10 in 10.0 mi Calm Calm - N/A   Overcast
11:53 PM 77.0 °F - 72.0 °F 84% 30.09 in 10.0 mi Calm Calm - N/A   Mostly Cloudy